Weather reports worldwide

Advertisment
L9F, Netherlands (6207): temperature & dewpoint: 14.10.2019 04:00:00 - 20.10.2019 04:00:00 (CEST)L9F, Netherlands (6207): wind speed & gusts: 14.10.2019 04:00:00 - 20.10.2019 04:00:00 (CEST)L9F, Netherlands (6207): wind direction: 14.10.2019 04:00:00 - 20.10.2019 04:00:00 (CEST)L9F, Netherlands (6207): reduced air pressure: 14.10.2019 04:00:00 - 20.10.2019 04:00:00 (CEST)L9F, Netherlands (6207): visibility: 14.10.2019 04:00:00 - 20.10.2019 04:00:00 (CEST)
Date & Time tt [°C] td [°C] ff [km/h] ff [kn] fx [km/h] fx [kn] dd ppp [hPa] vv [km]
20.10.2019 04:00:00 14,0 7,0 29 16 - - SW - 10
20.10.2019 03:00:00 14,0 8,5 29 16 32 18 SW 1005,2 10
20.10.2019 02:00:00 13,8 8,3 31 17 29 16 WSW 1004,9 10
20.10.2019 01:00:00 13,8 8,4 31 17 36 19 WSW 1004,6 10
20.10.2019 00:00:00 13,6 9,6 37 20 47 25 SW 1004,2 10
19.10.2019 23:00:00 13,6 9,3 35 19 36 19 SW 1003,6 10
19.10.2019 22:00:00 13,3 8,7 39 21 43 23 WSW 1003,1 10
19.10.2019 21:00:00 14,5 9,6 44 24 47 25 SW 1002,5 10
19.10.2019 20:00:00 14,4 8,5 46 25 50 27 SW 1002,0 10
19.10.2019 19:00:00 13,2 9,8 46 25 61 33 SW 1001,8 4,5
19.10.2019 18:00:00 13,7 10,3 46 25 61 33 SSW 1001,7 6
19.10.2019 17:00:00 13,0 9,6 42 23 58 31 SSW 1001,3 10
19.10.2019 16:00:00 12,9 8,0 50 27 50 27 SSW 1001,2 10
19.10.2019 15:00:00 12,7 10,2 46 25 58 31 S 1001,4 10
19.10.2019 14:00:00 13,3 11,0 50 27 50 27 S 1001,4 10
19.10.2019 13:00:00 13,0 10,8 48 26 54 29 S 1001,4 10
19.10.2019 12:00:00 12,7 9,6 50 27 54 29 S 1001,7 10
19.10.2019 11:00:00 12,6 9,9 55 30 58 31 S 1001,5 10
19.10.2019 10:00:00 12,3 10,0 52 28 54 29 S 1001,4 10
19.10.2019 09:00:00 12,6 10,3 57 31 58 31 SSW 1001,0 10
19.10.2019 08:00:00 12,4 10,7 50 27 58 31 S 1001,1 10
19.10.2019 07:00:00 12,8 10,7 57 31 61 33 SSW 1000,9 10
19.10.2019 06:00:00 12,8 10,6 61 33 61 33 SSW 1001,0 10
19.10.2019 05:00:00 13,0 10,7 54 29 58 31 S 1001,2 10
19.10.2019 04:00:00 13,4 10,7 57 31 61 33 S 1001,4 10
19.10.2019 03:00:00 14,3 10,7 65 35 65 35 SSW 1001,4 10
19.10.2019 02:00:00 14,3 10,0 68 37 72 39 SSW 1001,8 10
19.10.2019 01:00:00 14,3 10,3 70 38 76 41 SW 1001,7 10
19.10.2019 00:00:00 14,9 9,4 63 34 72 39 SW 1001,2 10
18.10.2019 23:00:00 14,2 9,8 54 29 54 29 SW 1001,5 10
18.10.2019 22:00:00 13,1 8,8 61 33 72 39 WSW 1000,8 10
18.10.2019 21:00:00 14,2 10,1 55 30 76 41 SW 1000,7 10
18.10.2019 20:00:00 13,0 9,3 44 24 86 47 WSW 1000,7 10
18.10.2019 19:00:00 14,7 8,6 59 32 83 45 SW 1000,1 10
18.10.2019 18:00:00 12,1 8,1 59 32 68 37 SW 1000,0 10
18.10.2019 17:00:00 13,7 8,1 68 37 68 37 WSW 999,3 10
18.10.2019 16:00:00 11,7 9,7 46 25 61 33 WSW 998,4 10
18.10.2019 15:00:00 11,3 9,6 42 23 58 31 SW 997,6 10
18.10.2019 14:00:00 11,2 9,2 57 31 68 37 SSW 998,4 10
18.10.2019 13:00:00 12,3 9,4 61 33 76 41 S 998,9 10
18.10.2019 12:00:00 13,7 12,1 61 33 65 35 S 998,7 10
18.10.2019 11:00:00 13,6 11,7 57 31 58 31 S 999,9 10
18.10.2019 10:00:00 13,5 11,5 54 29 54 29 S 1000,9 10
18.10.2019 09:00:00 13,3 11,8 50 27 54 29 S 1001,9 10
18.10.2019 08:00:00 13,3 11,9 50 27 54 29 S 1001,8 10
18.10.2019 07:00:00 13,4 12,1 46 25 50 27 S 1002,7 10
18.10.2019 06:00:00 13,6 12,0 48 26 50 27 S 1003,6 10
18.10.2019 05:00:00 13,5 12,3 46 25 50 27 S 1004,1 10
18.10.2019 04:00:00 13,3 12,1 50 27 50 27 S 1004,8 9
18.10.2019 03:00:00 13,7 11,6 44 24 47 25 S 1005,5 10
18.10.2019 02:00:00 14,1 11,6 42 23 43 23 S 1006,3 10
18.10.2019 01:00:00 14,2 11,7 42 23 47 25 S 1006,7 10
18.10.2019 00:00:00 14,4 10,4 44 24 47 25 S 1006,9 10
17.10.2019 23:00:00 14,4 9,9 39 21 40 21 S 1007,5 10
17.10.2019 22:00:00 14,5 10,3 42 23 47 25 SSW 1007,9 10
17.10.2019 21:00:00 14,6 10,4 46 25 43 23 SSW 1008,0 10
17.10.2019 20:00:00 14,6 10,3 52 28 54 29 SSW 1008,1 10
17.10.2019 19:00:00 14,6 10,1 52 28 50 27 SSW 1008,1 10
17.10.2019 18:00:00 14,4 10,7 44 24 43 23 SSW 1008,3 10
17.10.2019 17:00:00 14,2 11,4 35 19 40 21 S 1008,4 10
17.10.2019 16:00:00 12,9 9,6 21 11 43 23 S 1008,8 10
17.10.2019 15:00:00 13,3 9,3 34 18 47 25 SSW 1009,4 10
17.10.2019 14:00:00 14,3 7,4 22 12 29 16 SW 1008,9 10
17.10.2019 13:00:00 14,2 6,6 26 14 29 16 WSW 1009,1 10
17.10.2019 12:00:00 14,0 5,0 34 18 36 19 WSW 1008,9 10
17.10.2019 11:00:00 13,6 8,0 21 11 25 14 SW 1008,7 10
17.10.2019 10:00:00 13,2 7,4 22 12 25 14 SW 1008,3 10
17.10.2019 09:00:00 13,6 6,1 22 12 22 12 WSW 1007,6 10
17.10.2019 08:00:00 13,6 6,5 24 13 29 16 W 1006,9 10
17.10.2019 07:00:00 13,6 8,3 26 14 25 14 W 1006,4 10
17.10.2019 06:00:00 13,7 8,5 24 13 25 14 W 1006,1 10
17.10.2019 05:00:00 13,9 8,9 21 11 22 12 W 1005,9 10
17.10.2019 04:00:00 14,1 9,0 21 11 22 12 W 1005,5 10
17.10.2019 03:00:00 13,9 9,9 22 12 25 14 W 1005,2 10
17.10.2019 02:00:00 14,2 11,5 22 12 25 14 W 1004,9 10
17.10.2019 01:00:00 14,4 11,1 24 13 25 14 WSW 1004,7 10
17.10.2019 00:00:00 14,7 10,9 28 15 29 16 WSW 1004,5 10
16.10.2019 23:00:00 14,9 12,2 31 17 32 18 WSW 1004,3 10
16.10.2019 22:00:00 15,1 13,0 41 22 47 25 SW 1003,8 10
16.10.2019 21:00:00 15,1 14,7 52 28 50 27 SSW 1003,7 5
16.10.2019 20:00:00 14,1 14,0 48 26 50 27 S 1004,0 4,0
16.10.2019 19:00:00 13,8 13,6 50 27 58 31 S 1004,3 4,7
16.10.2019 18:00:00 13,6 13,0 54 29 54 29 S 1004,2 10
16.10.2019 17:00:00 13,6 12,5 52 28 50 27 S 1004,9 10
16.10.2019 16:00:00 13,9 12,1 44 24 47 25 S 1005,3 10
16.10.2019 15:00:00 13,7 12,1 46 25 47 25 S 1005,5 10
16.10.2019 14:00:00 13,4 11,9 42 23 43 23 S 1006,0 10
16.10.2019 13:00:00 13,4 11,4 35 19 36 19 S 1006,5 10
16.10.2019 12:00:00 13,6 12,2 35 19 43 23 S 1006,9 10
16.10.2019 11:00:00 13,4 12,4 44 24 43 23 SSW 1006,9 10
16.10.2019 10:00:00 13,6 12,7 41 22 40 21 S 1006,9 10
16.10.2019 09:00:00 13,9 13,0 39 21 40 21 SSW 1006,8 10
16.10.2019 08:00:00 14,5 13,1 41 22 40 21 SSW 1006,5 10
16.10.2019 07:00:00 14,8 12,2 24 13 36 19 SSW 1006,2 10
16.10.2019 06:00:00 14,1 12,7 22 12 22 12 S 1006,5 10
16.10.2019 05:00:00 14,2 11,3 13 7 14 8 SSW 1006,7 10
16.10.2019 04:00:00 14,2 10,4 11 6 14 8 WSW 1006,9 10
16.10.2019 03:00:00 14,1 10,3 15 8 18 10 WSW 1007,1 10
16.10.2019 02:00:00 14,1 11,1 24 13 25 14 W 1007,0 10
16.10.2019 01:00:00 14,2 12,0 16 9 22 12 W 1006,8 10
16.10.2019 00:00:00 13,7 12,9 18 10 22 12 WSW 1006,8 3,8
15.10.2019 23:00:00 14,3 12,9 15 8 18 10 SW 1006,8 10
15.10.2019 22:00:00 14,0 12,9 13 7 22 12 SW 1006,6 10
15.10.2019 21:00:00 13,7 12,7 21 11 22 12 SW 1006,4 3,6
15.10.2019 20:00:00 14,4 12,2 18 10 22 12 SW 1006,1 10
15.10.2019 19:00:00 14,3 12,1 21 11 25 14 SW 1005,9 10
15.10.2019 18:00:00 14,6 12,8 24 13 32 18 WSW 1005,4 10
15.10.2019 17:00:00 14,7 12,3 35 19 32 18 SW 1005,2 10
15.10.2019 16:00:00 14,8 12,5 37 20 36 19 SW 1005,1 10
15.10.2019 15:00:00 14,8 12,6 35 19 43 23 SW 1004,8 10
15.10.2019 14:00:00 15,0 13,0 39 21 47 25 SW 1004,8 10
15.10.2019 13:00:00 15,3 13,2 42 23 47 25 SW 1004,5 10
15.10.2019 12:00:00 15,6 13,3 44 24 50 27 SW 1004,5 10
15.10.2019 11:00:00 15,4 14,2 48 26 54 29 SSW 1004,5 10
15.10.2019 10:00:00 15,4 14,1 52 28 58 31 SSW 1003,6 10
15.10.2019 09:00:00 15,6 14,1 57 31 58 31 SSW 1003,8 10
15.10.2019 08:00:00 15,4 14,3 54 29 54 29 SSW 1003,3 10
15.10.2019 07:00:00 15,7 14,2 55 30 54 29 SSW 1003,5 10
15.10.2019 06:00:00 15,8 14,5 48 26 50 27 SSW 1003,3 10
15.10.2019 05:00:00 15,9 14,3 46 25 50 27 SSW 1003,0 10
15.10.2019 04:00:00 15,9 14,4 50 27 50 27 S 1003,3 10
15.10.2019 03:00:00 15,6 14,5 44 24 43 23 SSE 1003,8 10
15.10.2019 02:00:00 15,7 14,5 39 21 36 19 SSE 1003,7 10
15.10.2019 01:00:00 15,6 14,3 35 19 47 25 SSE 1004,6 10
15.10.2019 00:00:00 15,3 14,1 39 21 47 25 SSE 1006,4 10
14.10.2019 23:00:00 14,8 13,4 41 22 50 27 SE 1006,2 10
14.10.2019 22:00:00 14,6 13,0 42 23 47 25 ESE 1006,2 10
14.10.2019 21:00:00 14,5 12,6 44 24 43 23 ESE 1007,4 10
14.10.2019 20:00:00 14,5 12,1 42 23 54 29 E 1008,4 10
14.10.2019 19:00:00 14,2 10,0 44 24 54 29 E 1008,8 10
14.10.2019 18:00:00 13,8 10,8 52 28 58 31 E 1008,9 10
14.10.2019 17:00:00 13,8 9,5 37 20 40 21 E 1010,1 10
14.10.2019 16:00:00 13,0 8,5 21 11 25 14 E 1011,4 10
14.10.2019 15:00:00 13,7 10,9 16 9 18 10 ESE 1012,6 10
14.10.2019 14:00:00 14,3 10,2 9 5 11 6 E 1013,3 10
14.10.2019 13:00:00 14,2 9,9 5 3 7 4 SSE 1014,0 10
14.10.2019 12:00:00 14,0 9,6 4 2 18 10 - 1014,1 10
14.10.2019 11:00:00 13,9 9,8 9 5 11 6 SW 1014,2 10
14.10.2019 10:00:00 13,8 9,5 13 7 18 10 WSW 1013,9 10
14.10.2019 09:00:00 13,8 9,6 16 9 18 10 WSW 1013,6 10
14.10.2019 08:00:00 13,8 9,6 21 11 25 14 W 1013,0 10
14.10.2019 07:00:00 13,8 8,9 24 13 25 14 W 1012,1 10
14.10.2019 06:00:00 13,8 9,5 28 15 29 16 WSW 1011,9 10
14.10.2019 05:00:00 13,9 10,2 31 17 36 19 W 1011,4 10
14.10.2019 04:00:00 14,0 10,5 39 21 43 23 WSW 1010,7 10

tt = temperature
td = dewpoint
ff = wind speed
fx = gusts
dd = wind direction
ppp = reduced air pressure
vv = visibility

Next stations